TimeEDT,TemperatureF,Dew PointF,Humidity,Sea Level PressureIn,VisibilityMPH,Wind Direction,Wind SpeedMPH,Gust SpeedMPH,PrecipitationIn,Events,Conditions,WindDirDegrees,DateUTC
12:51 AM,48.9,43.0,80,30.22,10.0,Calm,Calm,-,N/A,,Overcast,0,2013-10-06 04:51:00
1:51 AM,48.0,42.1,80,30.22,10.0,Calm,Calm,-,N/A,,Overcast,0,2013-10-06 05:51:00
2:51 AM,48.9,41.0,74,30.22,10.0,WNW,3.5,-,N/A,,Overcast,300,2013-10-06 06:51:00
3:51 AM,48.9,41.0,74,30.20,10.0,Calm,Calm,-,N/A,,Overcast,0,2013-10-06 07:51:00
4:51 AM,48.9,41.0,74,30.21,10.0,Calm,Calm,-,N/A,,Overcast,0,2013-10-06 08:51:00
5:51 AM,48.0,43.0,83,30.21,10.0,Calm,Calm,-,N/A,,Overcast,0,2013-10-06 09:51:00
6:51 AM,48.9,44.1,83,30.22,10.0,Calm,Calm,-,N/A,,Overcast,0,2013-10-06 10:51:00
7:51 AM,48.9,43.0,80,30.23,10.0,Calm,Calm,-,N/A,,Overcast,0,2013-10-06 11:51:00
8:51 AM,50.0,43.0,77,30.23,10.0,Calm,Calm,-,N/A,,Overcast,0,2013-10-06 12:51:00
9:51 AM,53.1,44.1,71,30.23,10.0,SE,3.5,-,N/A,,Overcast,140,2013-10-06 13:51:00
10:09 AM,53.6,42.8,67,30.22,10.0,South,5.8,-,N/A,,Overcast,190,2013-10-06 14:09:00
10:51 AM,54.0,42.1,64,30.23,10.0,South,9.2,-,N/A,,Overcast,170,2013-10-06 14:51:00
11:51 AM,53.1,42.1,66,30.24,10.0,SSW,6.9,-,N/A,,Overcast,200,2013-10-06 15:51:00
12:51 PM,51.1,41.0,68,30.23,10.0,South,12.7,19.6,N/A,,Overcast,170,2013-10-06 16:51:00
1:51 PM,48.9,43.0,80,30.22,10.0,South,8.1,-,0.00,Rain,Light Rain,180,2013-10-06 17:51:00
2:51 PM,48.0,44.1,86,30.21,10.0,South,8.1,-,0.00,Rain,Light Rain,170,2013-10-06 18:51:00
3:13 PM,48.2,44.6,87,30.19,10.0,South,10.4,-,0.01,Rain,Light Rain,170,2013-10-06 19:13:00
3:51 PM,48.0,45.0,89,30.20,3.0,South,10.4,-,0.04,Rain,Rain,170,2013-10-06 19:51:00
4:25 PM,46.4,44.6,93,30.18,2.5,South,9.2,-,0.07,Rain,Light Rain,170,2013-10-06 20:25:00
4:32 PM,46.4,44.6,93,30.17,3.0,SSE,9.2,-,0.12,Rain,Rain,160,2013-10-06 20:32:00
4:39 PM,46.4,44.6,93,30.18,2.0,South,6.9,-,0.14,Rain,Rain,170,2013-10-06 20:39:00
4:51 PM,46.9,45.0,93,30.19,2.0,South,12.7,-,0.21,Rain,Heavy Rain,170,2013-10-06 20:51:00
4:56 PM,46.4,44.6,93,30.16,1.8,South,10.4,-,0.03,Rain,Heavy Rain,170,2013-10-06 20:56:00
5:02 PM,46.4,44.6,93,30.17,3.0,South,11.5,19.6,0.04,Rain,Light Rain,180,2013-10-06 21:02:00
5:10 PM,48.2,44.6,87,30.17,9.0,South,10.4,-,0.04,Rain,Light Rain,190,2013-10-06 21:10:00
5:51 PM,48.0,45.0,89,30.19,10.0,South,10.4,-,0.05,,Overcast,180,2013-10-06 21:51:00
6:29 PM,46.4,44.6,93,30.17,9.0,South,10.4,17.3,N/A,,Overcast,190,2013-10-06 22:29:00
6:51 PM,46.9,46.0,97,30.19,5.0,South,11.5,20.7,N/A,,Overcast,180,2013-10-06 22:51:00
7:51 PM,48.0,46.0,93,30.18,4.0,South,11.5,18.4,N/A,,Overcast,180,2013-10-06 23:51:00
8:51 PM,48.0,46.0,93,30.17,4.0,South,11.5,20.7,N/A,,Overcast,180,2013-10-07 00:51:00
9:26 PM,48.2,46.4,93,30.15,4.0,South,11.5,20.7,N/A,,Overcast,180,2013-10-07 01:26:00
9:51 PM,48.0,46.9,96,30.17,4.0,South,11.5,-,0.01,,Overcast,180,2013-10-07 01:51:00
10:51 PM,48.9,46.9,93,30.16,7.0,South,10.4,-,N/A,,Overcast,190,2013-10-07 02:51:00
11:51 PM,50.0,48.0,93,30.14,10.0,South,11.5,-,N/A,,Overcast,180,2013-10-07 03:51:00